Home   Weather   Kuressaare   Past weeks
Flag for Estonia

Past Weather in Kuressaare, Estonia — Yesterday and Last 2 Weeks

Now
39 °F

Passing clouds.


Feels Like: 37 °F
Forecast: 54 / 47 °F
Wind: 3 mph from Southeast

Location: Kuressaare

Current Time: Oct 21, 2019 at 9:39:35 pm

Latest Report: Oct 21, 2019 at 8:50 pm


Visibility: N/A

Pressure: 30.15 "Hg

Humidity: 100%

Dew Point: 39 °F

Location of KuressaareLocation

Past Weather in Kuressaare — Graph

°F

Kuressaare Temperature Yesterday

Maximum temperature yesterday: 54 °F (at 2:50 pm)
Minimum temperature yesterday: 48 °F (at 7:08 am)
Average temperature yesterday: 51 °F

High & Low Weather Summary for the Past Weeks

 TemperatureHumidityPressure
High59 °F (Oct 14, 12:50 pm)100% (Oct 7, 1:50 am)30.18 "Hg (Oct 7, 1:50 am)
Low28 °F (Oct 8, 2:50 am)71% (Oct 7, 3:50 pm)29.30 "Hg (Oct 12, 3:58 am)
Average49 °F94%29.75 "Hg
* Reported Oct 6 8:50 pm — Oct 21 8:27 pm, Kuressaare. Weather by CustomWeather, © 2019

Note: Actual official high and low records may vary slightly from our data, if they occured in-between our weather recording intervals... More about our weather records

Advertising

Kuressaare Weather History for the Previous 24 Hours

Scroll right to see more
 ConditionsComfort  
Time TempWeatherWind HumidityBarometerVisibility
8:27 pm
Mon, Oct 21
39 °FPassing clouds.3 mph100%30.15 "HgN/A
8:16 pm39 °FPassing clouds.2 mph100%30.15 "Hg2 mi
8:01 pm41 °FPassing clouds.2 mph93%30.18 "HgN/A
6:50 pm43 °FPassing clouds.2 mph93%30.18 "HgN/A
5:50 pm50 °FPartly sunny.5 mph76%30.15 "HgN/A
4:50 pm50 °FOvercast.7 mph76%30.18 "HgN/A
3:50 pm52 °FMore clouds than sun.6 mph77%30.15 "HgN/A
2:50 pm52 °FBroken clouds.6 mph77%30.15 "HgN/A
1:50 pm54 °FPartly sunny.6 mph72%30.12 "HgN/A
12:50 pm50 °FPartly sunny.6 mph88%30.12 "HgN/A
11:50 am50 °FPartly sunny.7 mph88%30.09 "HgN/A
10:50 am50 °FOvercast.6 mph88%30.09 "HgN/A
9:50 am48 °FPartly sunny.5 mph94%30.07 "HgN/A
8:50 am48 °FScattered clouds.5 mph94%30.04 "HgN/A
7:50 am48 °FPassing clouds.7 mph94%30.01 "HgN/A
7:37 am48 °FPartly cloudy.6 mph94%30.01 "HgN/A
7:02 am50 °FPassing clouds.7 mph94%30.01 "HgN/A
5:50 am50 °FClear.6 mph100%29.98 "HgN/A
4:50 am52 °FPassing clouds.6 mph94%29.95 "HgN/A
3:50 am52 °FLow clouds.6 mph100%29.95 "HgN/A
2:50 am54 °FOvercast.6 mph100%29.92 "Hg6 mi
2:25 am54 °FOvercast.6 mph100%29.92 "Hg4 mi
2:16 am54 °FMostly cloudy.6 mph100%29.92 "Hg4 mi
2:05 am54 °FOvercast.8 mph100%29.92 "Hg3 mi
2:01 am54 °FFog.7 mph100%29.92 "Hg3 mi
1:38 am54 °FFog.8 mph100%29.92 "Hg2 mi
1:14 am54 °FFog.7 mph100%29.92 "Hg2 mi
12:50 am54 °FFog.6 mph94%29.92 "Hg2 mi
12:38 am54 °FFog.6 mph94%29.92 "Hg2 mi
11:56 pm
Sun, Oct 20
52 °FLight rain. Fog.3 mph100%29.92 "Hg2 mi
11:14 pm52 °FLight rain. Fog.5 mph100%29.89 "Hg3 mi
10:54 pm52 °FLight rain. Fog.5 mph100%29.89 "Hg3 mi
9:50 pm54 °FLight rain. Passing clouds.3 mph100%29.89 "Hg4 mi
9:36 pm54 °FLight rain. Passing clouds.5 mph100%29.89 "Hg4 mi
9:18 pm54 °FLight rain. Overcast.5 mph100%29.89 "Hg3 mi
9:02 pm54 °FLight rain. Mostly cloudy.7 mph100%29.89 "Hg4 mi
Weather by CustomWeather, © 2019

See weather overview